Location: Sevilla
(37.3933°N, 5.9839°W)
Time: 13:09:26
(UTC+02:00)

S-56A Canister/Altair - Pass Details

Date: 24 June 2024
Orbit: 638 x 2488 km, 38.9° (Epoch: 14 July)

Event Time Altitude Azimuth Distance (km) Brightness Sun altitude
Rises 02:50:46 0° 284° (WNW) 4,953 11.8 -28.9°
Reaches altitude 10° 02:53:39 10° 284° (WNW) 4,176 11.3 -28.9°
Maximum altitude 03:05:38 82° 199° (SSW) 2,302 9.6 -28.5°
Drops below altitude 10° 03:20:48 10° 114° (ESE) 5,141 11.6 -27.9°
Sets 03:24:46 0° 114° (ESE) 6,115 12.0 -27.7°
